Starlink 30356

operational
NORAD ID: 57748 Int'l Des: 2023-131 Owner: SPXS Country: US Constellation: starlink
LEOCIRCULAR

关于 Starlink 30356

正在加载描述...

实时位置

正在加载3D地球...

即将过境

高度历史

Altitude vs Time

uPlot chart will show altitude changes over time

两行轨道根数

1 57748U 23131S 25352.17028285 -.00000767 00000-0 -41686-4 0 9992
2 57748 43.0018 254.5646 0000891 252.1336 107.9409 15.02537782127663
Epoch: Dec 18, 2025 • Age: 30 hours

当前状态

高度 560.9 km
速度 7.58 km/s
星下点 -12.19°S, 152.29°W
发射日期 Sep 1, 2023
运行时间 2.2 years
类型 internet

技术详情

分类 Payload
质量 730.00 kg
干质量 700.00 kg
总质量 730.00 kg
长度 0.30 m
直径 4.10 m
跨度 29.00 m
形状 Box + pan
制造商 SPXS
平台类型 Starlink V2M
阶段状态 In Orbit
所有者/国家 SPXS/US

大型星座

Loading constellations...